GW7157 Weather Reports


Display with metric or nautical units.
time (UTC)temp
F
wind
direction
speed
MPH
gust
MPH
rain 1hr
in
rain 24hr
in
rain mn
in
humidity
%
barometer
mb
20260508014040 60 262 2.0 3.0 0.00 0.00 0.00 27 1016.6
20260508013536 60 214 3.0 3.0 0.00 0.00 0.00 26 1016.5
20260508013033 61 169 0.0 0.0 0.00 0.00 0.00 25 1016.4
20260508012530 62 131 1.0 2.0 0.00 0.00 0.00 23 1016.1
20260508012028 62 257 1.0 2.0 0.00 0.00 0.00 24 1016.6
20260508011526 62 260 4.0 6.0 0.00 0.00 0.00 24 1016.5
20260508011023 62 20 1.0 3.0 0.00 0.00 0.00 23 1016.3
20260508010520 62 264 1.0 4.0 0.00 0.00 0.00 25 1016.4
20260508010017 62 258 3.0 4.0 0.00 0.00 0.00 24 1016.3
20260508005514 62 254 1.0 6.0 0.00 0.00 0.00 25 1016.3
20260508005011 63 342 0.0 1.0 0.00 0.00 0.00 24 1016.1
20260508004506 63 333 2.0 2.0 0.00 0.00 0.00 23 1016.3
20260508004003 63 292 0.0 1.0 0.00 0.00 0.00 24 1016.1
20260508003500 63 342 2.0 2.0 0.00 0.00 0.00 24 1016.3
20260508002957 63 35 2.0 2.0 0.00 0.00 0.00 24 1016.0
20260508002453 64 21 1.0 3.0 0.00 0.00 0.00 23 1016.3
20260508001950 64 344 1.0 2.0 0.00 0.00 0.00 22 1016.0
20260508001446 65 359 1.0 1.0 0.00 0.00 0.00 22 1016.1
20260508000943 66 73 1.0 2.0 0.00 0.00 0.00 23 1016.0
20260508000438 66 134 0.0 1.0 0.00 0.00 0.00 22 1016.3
20260507235936 64 259 2.0 3.0 0.00 0.00 0.00 22 1016.4
20260507235432 64 315 1.0 3.0 0.00 0.00 0.00 22 1016.1
20260507234930 65 348 5.0 4.0 0.00 0.00 0.00 22 1016.0
20260507234426 66 349 5.0 8.0 0.00 0.00 0.00 21 1016.3
20260507233923 65 20 3.0 4.0 0.00 0.00 0.00 22 1016.0
20260507233420 67 256 4.0 15.0 0.00 0.00 0.00 20 1016.3
20260507232919 67 311 4.0 6.0 0.00 0.00 0.00 20 1016.0
20260507232414 66 305 6.0 7.0 0.00 0.00 0.00 22 1016.0
20260507231912 65 25 4.0 4.0 0.00 0.00 0.00 23 1016.0
20260507231408 65 51 2.0 6.0 0.00 0.00 0.00 21 1016.3
20260507230905 65 329 2.0 9.0 0.00 0.00 0.00 22 1016.3
20260507230402 65 300 6.0 8.0 0.00 0.00 0.00 22 1016.0
20260507225902 66 17 6.0 9.0 0.00 0.00 0.00 21 1016.6
20260507225359 65 329 10.0 11.0 0.00 0.00 0.00 22 1016.4
20260507224855 65 301 6.0 7.0 0.00 0.00 0.00 23 1016.5
20260507224351 65 346 11.0 13.0 0.00 0.00 0.00 21 1016.4
20260507223847 66 1 8.0 11.0 0.00 0.00 0.00 22 1016.6
20260507223344 65 296 3.0 8.0 0.00 0.00 0.00 22 1016.6
20260507222841 66 257 3.0 8.0 0.00 0.00 0.00 21 1016.5
20260507222337 66 258 1.0 2.0 0.00 0.00 0.00 21 1016.5
20260507221834 65 336 6.0 8.0 0.00 0.00 0.00 22 1016.8
20260507221331 66 281 6.0 8.0 0.00 0.00 0.00 22 1016.5
20260507220827 66 335 6.0 17.0 0.00 0.00 0.00 22 1016.6
20260507220326 65 355 8.0 14.0 0.00 0.00 0.00 22 1016.4
20260507215821 64 1 11.0 16.0 0.00 0.00 0.00 21 1016.4
20260507215319 63 243 6.0 14.0 0.00 0.00 0.00 22 1016.8
20260507214816 64 349 4.0 11.0 0.00 0.00 0.00 22 1016.8
20260507214313 65 263 2.0 13.0 0.00 0.00 0.00 22 1016.8
20260507213808 66 338 7.0 10.0 0.00 0.00 0.00 22 1016.9
20260507213305 66 346 6.0 11.0 0.00 0.00 0.00 21 1016.6
20260507212802 66 350 6.0 16.0 0.00 0.00 0.00 22 1016.8
20260507212258 65 349 4.0 7.0 0.00 0.00 0.00 23 1017.1
20260507211754 66 341 16.0 18.0 0.00 0.00 0.00 22 1017.1
20260507211251 65 340 6.0 10.0 0.00 0.00 0.00 24 1017.2
20260507210748 64 264 8.0 11.0 0.00 0.00 0.00 24 1017.0
20260507210245 66 202 2.0 8.0 0.00 0.00 0.00 23 1017.2
20260507205742 66 325 3.0 6.0 0.00 0.00 0.00 23 1017.5
20260507205238 64 295 3.0 4.0 0.00 0.00 0.00 24 1017.4
20260507204734 64 348 7.0 14.0 0.00 0.00 0.00 24 1017.5
20260507204233 64 340 7.0 9.0 0.00 0.00 0.00 24 1017.6
20260507203730 63 327 6.0 9.0 0.00 0.00 0.00 25 1017.6
20260507203227 63 344 8.0 11.0 0.00 0.00 0.00 24 1017.7
20260507202723 63 337 7.0 10.0 0.00 0.00 0.00 26 1017.7
20260507202220 62 353 3.0 10.0 0.00 0.00 0.00 26 1018.0
20260507201714 62 1 2.0 13.0 0.00 0.00 0.00 26 1018.1
20260507201212 62 0 6.0 7.0 0.00 0.00 0.00 26 1018.0
20260507200708 62 328 10.0 13.0 0.00 0.00 0.00 25 1017.9
20260507200204 62 332 5.0 6.0 0.00 0.00 0.00 25 1018.0
20260507195700 60 341 4.0 7.0 0.00 0.00 0.00 27 1018.1
20260507195158 61 230 2.0 6.0 0.00 0.00 0.00 26 1018.3
20260507194655 60 321 2.0 6.0 0.00 0.00 0.00 26 1018.2
20260507194150 61 282 6.0 9.0 0.00 0.00 0.00 25 1018.6
20260507193647 62 326 3.0 6.0 0.00 0.00 0.00 25 1018.6
20260507193145 61 241 0.0 4.0 0.00 0.00 0.00 24 1018.6
20260507192640 61 356 6.0 8.0 0.00 0.00 0.00 25 1018.6
20260507192138 62 321 5.0 7.0 0.00 0.00 0.00 26 1018.8
20260507191633 63 17 7.0 11.0 0.00 0.00 0.00 25 1018.5
20260507191130 63 0 6.0 8.0 0.00 0.00 0.00 24 1018.7
20260507190627 62 348 6.0 11.0 0.00 0.00 0.00 25 1018.8
20260507190126 63 341 4.0 6.0 0.00 0.00 0.00 26 1018.8
20260507185624 61 0 5.0 9.0 0.00 0.00 0.00 26 1018.8
20260507185120 63 46 2.0 7.0 0.00 0.00 0.00 25 1019.0
20260507184618 63 279 4.0 8.0 0.00 0.00 0.00 24 1019.2
20260507184116 63 288 4.0 8.0 0.00 0.00 0.00 24 1019.2
20260507183612 63 270 5.0 13.0 0.00 0.00 0.00 23 1019.1
20260507183109 62 354 8.0 9.0 0.00 0.00 0.00 23 1019.0
20260507182605 62 33 6.0 10.0 0.00 0.00 0.00 23 1018.7
20260507182101 62 54 3.0 6.0 0.00 0.00 0.00 24 1018.7
20260507181559 62 73 3.0 3.0 0.00 0.00 0.00 22 1019.0
20260507181055 63 39 3.0 4.0 0.00 0.00 0.00 21 1018.7
20260507180551 62 22 2.0 3.0 0.00 0.00 0.00 23 1018.8
20260507180048 63 248 5.0 7.0 0.00 0.00 0.00 21 1019.0
20260507175544 62 347 4.0 6.0 0.00 0.00 0.00 22 1019.0
20260507175042 62 8 1.0 6.0 0.00 0.00 0.00 22 1019.1
20260507174539 62 35 3.0 4.0 0.00 0.00 0.00 23 1019.3
20260507174037 61 335 2.0 7.0 0.00 0.00 0.00 24 1019.5
20260507173533 60 335 5.0 7.0 0.00 0.00 0.00 23 1019.3
20260507173031 60 59 4.0 6.0 0.00 0.00 0.00 23 1019.6
20260507172526 60 214 6.0 6.0 0.00 0.00 0.00 22 1019.6
20260507172023 61 289 3.0 8.0 0.00 0.00 0.00 21 1019.6
20260507171519 60 358 4.0 6.0 0.00 0.00 0.00 23 1019.6
20260507171016 59 240 2.0 6.0 0.00 0.00 0.00 24 1019.8
20260507170513 59 255 3.0 9.0 0.00 0.00 0.00 22 1019.8
20260507170010 60 232 2.0 7.0 0.00 0.00 0.00 26 1019.7
20260507165506 60 348 4.0 9.0 0.00 0.00 0.00 24 1019.7
20260507165002 59 81 1.0 3.0 0.00 0.00 0.00 25 1019.8
20260507164458 58 4 4.0 7.0 0.00 0.00 0.00 24 1020.1
20260507163955 58 358 2.0 10.0 0.00 0.00 0.00 27 1020.1
20260507163453 59 333 6.0 8.0 0.00 0.00 0.00 24 1019.9
20260507162950 58 253 2.0 9.0 0.00 0.00 0.00 27 1020.1
20260507162445 59 12 4.0 6.0 0.00 0.00 0.00 25 1020.3
20260507161942 58 285 4.0 7.0 0.00 0.00 0.00 25 1020.1
20260507161438 58 331 4.0 8.0 0.00 0.00 0.00 25 1020.3
20260507160935 57 300 4.0 7.0 0.00 0.00 0.00 25 1020.1
20260507160431 57 8 5.0 7.0 0.00 0.00 0.00 26 1020.1
20260507155927 57 311 4.0 8.0 0.00 0.00 0.00 25 1020.1
20260507155423 57 357 5.0 8.0 0.00 0.00 0.00 28 1020.1
20260507154921 55 357 6.0 8.0 0.00 0.00 0.00 28 1020.1
20260507154417 55 4 4.0 8.0 0.00 0.00 0.00 30 1020.3
20260507153915 55 283 6.0 10.0 0.00 0.00 0.00 28 1020.4
20260507153411 55 235 4.0 6.0 0.00 0.00 0.00 27 1020.4
20260507152908 56 241 5.0 9.0 0.00 0.00 0.00 27 1020.2
20260507152404 55 357 3.0 6.0 0.00 0.00 0.00 28 1020.2
20260507151900 54 348 7.0 9.0 0.00 0.00 0.00 28 1020.1
20260507151356 54 234 2.0 8.0 0.00 0.00 0.00 29 1019.9
20260507150853 53 26 6.0 9.0 0.00 0.00 0.00 30 1020.2
20260507150350 53 297 3.0 17.0 0.00 0.00 0.00 30 1020.1
20260507145846 53 354 2.0 11.0 0.00 0.00 0.00 30 1020.3
20260507145343 53 242 8.0 10.0 0.00 0.00 0.00 29 1020.1
20260507144840 53 204 7.0 15.0 0.00 0.00 0.00 29 1020.1
20260507144337 53 317 9.0 13.0 0.00 0.00 0.00 29 1019.9
20260507143834 52 31 4.0 8.0 0.00 0.00 0.00 29 1020.1
20260507143331 52 0 4.0 8.0 0.00 0.00 0.00 30 1020.1
20260507142827 51 330 7.0 14.0 0.00 0.00 0.00 30 1019.9
20260507142323 51 269 6.0 17.0 0.00 0.00 0.00 31 1020.1
20260507141820 51 237 9.0 17.0 0.00 0.00 0.00 32 1019.8
20260507141317 51 342 5.0 9.0 0.00 0.00 0.00 32 1020.1
20260507140813 51 243 2.0 13.0 0.00 0.00 0.00 31 1020.2
20260507140310 50 344 4.0 10.0 0.00 0.00 0.00 33 1019.9
20260507135808 50 158 2.0 11.0 0.00 0.00 0.00 33 1019.9
20260507135306 50 227 6.0 17.0 0.00 0.00 0.00 32 1019.8
20260507134802 50 36 3.0 9.0 0.00 0.00 0.00 32 1020.1
20260507134258 49 44 3.0 14.0 0.00 0.00 0.00 32 1019.7
20260507133753 47 73 4.0 8.0 0.00 0.00 0.00 34 1019.8
20260507133250 45 127 1.0 8.0 0.00 0.00 0.00 42 1019.8
20260507132748 46 88 2.0 4.0 0.00 0.00 0.00 39 1019.9
20260507132245 46 33 4.0 4.0 0.00 0.00 0.00 37 1019.8
20260507131742 46 50 2.0 4.0 0.00 0.00 0.00 36 1019.7
20260507131239 49 64 3.0 6.0 0.00 0.00 0.00 35 1019.6
20260507130735 49 219 5.0 8.0 0.00 0.00 0.00 28 1019.7
20260507130233 49 44 2.0 3.0 0.00 0.00 0.00 31 1019.7
20260507125731 48 255 9.0 11.0 0.00 0.00 0.00 28 1019.6
20260507125229 48 286 4.0 6.0 0.00 0.00 0.00 30 1019.6
20260507124725 47 245 12.0 14.0 0.00 0.00 0.00 30 1019.5
20260507124222 47 342 4.0 7.0 0.00 0.00 0.00 32 1019.6
20260507123720 46 340 5.0 13.0 0.00 0.00 0.00 30 1019.2
20260507123218 46 238 4.0 8.0 0.00 0.00 0.00 33 1019.3
20260507122712 46 259 4.0 8.0 0.00 0.00 0.00 33 1019.3
20260507122209 44 288 8.0 10.0 0.00 0.00 0.00 32 1019.2
20260507121705 40 249 2.0 7.0 0.00 0.00 0.00 38 1019.5
20260507121201 39 62 0.0 4.0 0.00 0.00 0.00 42 1019.2
20260507120657 40 86 6.0 8.0 0.00 0.00 0.00 41 1019.3
20260507120154 43 143 1.0 4.0 0.00 0.00 0.00 38 1019.5
20260507115650 43 302 3.0 11.0 0.00 0.00 0.00 34 1019.5
20260507115146 41 211 3.0 9.0 0.00 0.00 0.00 36 1019.2
20260507114642 39 164 4.0 4.0 0.00 0.00 0.00 42 1019.5
20260507114139 37 79 1.0 4.0 0.00 0.00 0.00 47 1019.5
20260507113637 35 65 1.0 8.0 0.00 0.00 0.00 50 1019.5
20260507113133 35 86 0.0 6.0 0.00 0.00 0.00 51 1019.6
20260507112631 35 133 3.0 3.0 0.00 0.00 0.00 54 1019.6
20260507112128 36 106 1.0 2.0 0.00 0.00 0.00 50 1019.5
20260507111625 36 90 1.0 3.0 0.00 0.00 0.00 51 1019.6
20260507111122 36 294 4.0 4.0 0.00 0.00 0.00 52 1019.6
20260507110618 35 91 1.0 3.0 0.00 0.00 0.00 57 1019.7
20260507110115 35 190 2.0 2.0 0.00 0.00 0.00 53 1019.7
20260507105612 34 172 0.0 2.0 0.00 0.00 0.00 54 1019.7
20260507105107 33 172 2.0 2.0 0.00 0.00 0.00 59 1019.6
20260507104606 35 134 0.0 2.0 0.00 0.00 0.00 57 1019.7
20260507104101 35 123 2.0 2.0 0.00 0.00 0.00 53 1019.6
20260507103557 35 219 3.0 4.0 0.00 0.00 0.00 49 1019.5
20260507103054 34 154 5.0 6.0 0.00 0.00 0.00 51 1019.5
20260507102551 33 174 2.0 2.0 0.00 0.00 0.00 55 1019.6
20260507102047 33 199 2.0 3.0 0.00 0.00 0.00 58 1019.5
20260507101542 32 240 4.0 4.0 0.00 0.00 0.00 65 1019.8
20260507101039 32 249 3.0 3.0 0.00 0.00 0.00 64 1019.8
20260507100537 33 50 2.0 2.0 0.00 0.00 0.00 64 1019.9
20260507100035 34 234 0.0 1.0 0.00 0.00 0.00 62 1020.1
20260507095532 33 205 2.0 2.0 0.00 0.00 0.00 64 1019.9
20260507095029 33 217 1.0 2.0 0.00 0.00 0.00 61 1019.8
20260507094525 33 225 2.0 3.0 0.00 0.00 0.00 61 1019.8
20260507094022 33 186 1.0 3.0 0.00 0.00 0.00 60 1019.6
20260507093519 33 165 2.0 2.0 0.00 0.00 0.00 62 1019.6
20260507093018 32 167 0.0 2.0 0.00 0.00 0.00 64 1019.7
20260507092514 32 155 1.0 1.0 0.00 0.00 0.00 65 1019.6
20260507092011 32 154 2.0 2.0 0.00 0.00 0.00 63 1019.8
20260507091508 33 148 0.0 3.0 0.00 0.00 0.00 60 1020.1
20260507091003 33 229 4.0 4.0 0.00 0.00 0.00 67 1019.8
20260507090459 31 166 1.0 7.0 0.00 0.00 0.00 70 1019.9
20260507085956 32 183 1.0 1.0 0.00 0.00 0.00 74 1020.2
20260507085454 30 187 2.0 3.0 0.00 0.00 0.00 74 1020.1
20260507084950 29 218 2.0 2.0 0.00 0.00 0.00 83 1020.2
20260507084447 30 177 0.0 0.0 0.00 0.00 0.00 81 1019.9
20260507083944 31 189 2.0 2.0 0.00 0.00 0.00 79 1020.2
20260507083440 30 210 2.0 3.0 0.00 0.00 0.00 81 1020.4
20260507082937 29 179 2.0 2.0 0.00 0.00 0.00 87 1020.1
20260507082433 30 97 0.0 2.0 0.00 0.00 0.00 85 1020.4
20260507081930 28 206 3.0 3.0 0.00 0.00 0.00 92 1020.4
20260507081426 28 174 1.0 3.0 0.00 0.00 0.00 96 1020.6
20260507080923 28 177 0.0 0.0 0.00 0.00 0.00 97 1020.4
20260507080419 28 177 1.0 2.0 0.00 0.00 0.00 97 1020.4
20260507075914 28 175 0.0 2.0 0.00 0.00 0.00 97 1020.8
20260507075411 28 166 0.0 1.0 0.00 0.00 0.00 97 1020.9
20260507074907 27 134 1.0 1.0 0.00 0.00 0.00 97 1020.7
20260507074404 28 182 2.0 2.0 0.00 0.00 0.00 97 1020.7
20260507073902 28 67 0.0 0.0 0.00 0.00 0.00 97 1020.9
20260507073358 28 1 0.0 1.0 0.00 0.00 0.00 97 1020.9
20260507072855 28 266 1.0 3.0 0.00 0.00 0.00 97 1021.0
20260507072353 29 80 1.0 1.0 0.00 0.00 0.00 97 1021.0
20260507071850 29 175 1.0 1.0 0.00 0.00 0.00 97 1021.0
20260507071347 29 154 0.0 1.0 0.00 0.00 0.00 97 1021.0
20260507070843 29 176 2.0 2.0 0.00 0.00 0.00 97 1020.9
20260507070341 29 212 4.0 4.0 0.00 0.00 0.00 97 1021.2
20260507065837 28 204 2.0 3.0 0.00 0.00 0.00 97 1021.3
20260507065334 28 224 0.0 4.0 0.00 0.00 0.00 97 1021.5
20260507064831 28 235 3.0 3.0 0.00 0.00 0.00 97 1021.3
20260507064330 28 167 2.0 2.0 0.00 0.00 0.00 97 1021.2
20260507063827 28 237 0.0 2.0 0.00 0.00 0.00 97 1021.4
20260507063324 28 237 0.0 2.0 0.00 0.00 0.00 97 1021.2
20260507062820 29 244 1.0 2.0 0.00 0.00 0.00 97 1021.2
20260507062318 29 258 2.0 2.0 0.00 0.00 0.00 96 1021.2
20260507061816 29 255 0.0 1.0 0.00 0.00 0.00 96 1021.2
20260507061313 29 255 2.0 2.0 0.00 0.00 0.00 96 1021.0
20260507060812 29 205 1.0 2.0 0.00 0.00 0.00 96 1021.2
20260507060308 29 200 0.0 0.0 0.00 0.00 0.00 96 1021.0
20260507055804 29 200 0.0 0.0 0.00 0.10 0.10 96 1021.0
20260507055259 29 200 1.0 1.0 0.00 0.10 0.10 96 1020.8
20260507054756 29 199 0.0 2.0 0.00 0.10 0.10 96 1020.8
20260507054253 29 199 0.0 0.0 0.00 0.10 0.10 96 1021.0
20260507053750 29 199 0.0 0.0 0.00 0.10 0.10 95 1021.2
20260507053248 29 199 0.0 0.0 0.00 0.10 0.10 95 1021.2
20260507052747 29 199 0.0 0.0 0.00 0.10 0.10 95 1021.0
20260507052243 29 200 0.0 1.0 0.00 0.10 0.10 95 1020.8
20260507051741 29 200 1.0 3.0 0.00 0.10 0.10 95 1020.9
20260507051237 29 199 0.0 2.0 0.00 0.10 0.10 95 1020.9
20260507050734 29 196 0.0 0.0 0.00 0.10 0.10 95 1020.8
20260507050231 29 196 1.0 1.0 0.00 0.10 0.10 95 1020.7
20260507045728 29 197 1.0 1.0 0.00 0.10 0.10 94 1020.6
20260507045224 29 196 1.0 1.0 0.00 0.10 0.10 95 1020.7
20260507044721 30 196 0.0 1.0 0.00 0.10 0.10 94 1020.8
20260507044217 29 196 1.0 2.0 0.00 0.10 0.10 94 1020.9
20260507043714 29 196 0.0 0.0 0.00 0.10 0.10 94 1020.7
20260507043211 29 197 0.0 1.0 0.00 0.10 0.10 94 1020.8
20260507042707 29 196 0.0 2.0 0.00 0.10 0.10 94 1020.8
20260507042202 29 197 0.0 0.0 0.00 0.10 0.10 94 1020.8
20260507041700 29 197 0.0 2.0 0.00 0.10 0.10 94 1020.7
20260507041156 29 197 1.0 1.0 0.00 0.10 0.10 94 1021.0
20260507040653 29 197 1.0 1.0 0.00 0.10 0.10 94 1021.0
20260507040149 29 197 0.0 2.0 0.00 0.10 0.10 94 1020.7
20260507035645 29 197 0.0 2.0 0.00 0.10 0.10 94 1020.8
20260507035141 29 197 0.0 0.0 0.00 0.10 0.10 93 1020.8
20260507034638 29 197 0.0 0.0 0.00 0.10 0.10 92 1020.8
20260507034136 29 197 0.0 0.0 0.00 0.10 0.10 92 1020.8
20260507033634 30 197 0.0 0.0 0.00 0.10 0.10 90 1020.7
20260507033131 30 197 0.0 1.0 0.00 0.10 0.10 90 1020.8
20260507032629 30 192 2.0 2.0 0.00 0.10 0.10 89 1020.7
20260507032124 31 192 2.0 2.0 0.00 0.10 0.10 89 1020.7
20260507031621 31 191 2.0 2.0 0.00 0.10 0.10 88 1020.8
20260507031118 31 142 1.0 1.0 0.00 0.10 0.10 88 1020.8
20260507030615 31 142 1.0 2.0 0.00 0.10 0.10 88 1020.4
20260507030113 31 138 1.0 1.0 0.00 0.10 0.10 87 1020.3
20260507025610 31 169 0.0 1.0 0.00 0.10 0.10 88 1020.3
20260507025106 31 169 1.0 1.0 0.00 0.10 0.10 86 1020.4
20260507024605 32 170 2.0 2.0 0.00 0.10 0.10 86 1020.4
20260507024102 32 169 1.0 2.0 0.00 0.10 0.10 85 1020.6
20260507023556 32 169 0.0 1.0 0.00 0.10 0.10 84 1020.4
20260507023054 32 168 1.0 3.0 0.00 0.10 0.10 83 1020.2
20260507022551 33 170 1.0 1.0 0.00 0.10 0.10 82 1020.4
20260507022046 33 174 2.0 2.0 0.00 0.10 0.10 81 1020.3
20260507021543 33 166 3.0 4.0 0.00 0.10 0.10 81 1019.9
20260507021039 33 130 2.0 3.0 0.00 0.10 0.10 80 1020.2
20260507020537 33 134 2.0 3.0 0.00 0.10 0.10 79 1019.9
20260507020033 34 109 2.0 8.0 0.00 0.10 0.10 77 1020.2
20260507015532 34 160 7.0 8.0 0.00 0.10 0.10 76 1020.2
20260507015029 34 134 4.0 7.0 0.00 0.10 0.10 76 1020.1
20260507014525 34 120 1.0 4.0 0.00 0.10 0.10 76 1020.1